Location: Carrer del Canonge
(41.4901°N, 2.2931°E)
Time: 19:15:53
(UTC+00:00)

SPOT 3 Rocket - Pass Details

Date: 24 June 2021
Orbit: 779 x 794 km, 98.7° (Epoch: 29 July)

Event Time Altitude Azimuth Distance (km) Brightness Sun altitude
Exits shadow 20:46:19 10° 172° (S) 2,341 5.5 -12.0°
Reaches altitude 10° 20:46:19 10° 172° (S) 2,336 5.5 -12.0°
Maximum altitude 20:51:28 73° 257° (WSW) 827 3.7 -12.6°
Drops below altitude 10° 20:56:41 10° 342° (NNW) 2,362 7.2 -13.3°
Sets 20:59:02 0° 345° (NNW) 3,298 8.0 -13.6°
